Regional Weather Roundup
Issued by NWS

Home | Current Version | Previous Version | Graphics & Text | Print | Product List | Glossary On
Versions: 1 2 3 4 5 6 7 8 9 10 11 12 13 14 15 16 17 18 19 20 21 22 23 24 25 26 27 28 29 30 31 32 33 34 35 36 37 38 39 40 41 42 43 44 45 46 47 48 49 50
000
ASUS45 KCYS 250810
RWRWY

WYOMING REGIONAL WEATHER ROUNDUP
NATIONAL WEATHER SERVICE CHEYENNE WY
100 AM MST TUE NOV 25 2014

NOTE:  "FAIR" INDICATES FEW OR NO CLOUDS BELOW 12,000 FEET
WITH NO SIGNIFICANT WEATHER AND/OR OBSTRUCTIONS TO VISIBILITY.

WYZ001-250900-
YELLOWSTONE NATIONAL PARK

CITY           SKY/WX    TMP DP  RH WIND       PRES   REMARKS
LK YELLOWSTONE   N/A     20  14  77 VRB7      30.14F WCI  11
W YELLOWSTONE  NOT AVBL

$$
WYZ002>013-054>058-071-098>099-250900-
NORTHERN WYOMING

CITY           SKY/WX    TMP DP  RH WIND       PRES   REMARKS
JACKSON        CLOUDY    27  19  74 S17G23    30.22F WCI  14
CODY           CLOUDY    36  16  44 SW22G40   29.95F WCI  24
GREYBULL       CLOUDY    23  17  78 SE7       30.03F WCI  15
WORLAND        CLOUDY    20  13  74 SE7       30.02F WCI  11
SHERIDAN       CLOUDY    30  14  51 CALM      29.93F
BUFFALO        MOCLDY    28  10  46 S8        29.95F WCI  20
GILLETTE       MOCLDY    27  16  63 SW14      29.97F WCI  16
HULETT         FAIR      30  23  74 SW9       29.98F WCI  22
NEWCASTLE      FAIR      19  19 100 E8        30.04F WCI   9

$$
WYZ014>020-022>026-101>103-250900-
CENTRAL WYOMING

CITY           SKY/WX    TMP DP  RH WIND       PRES   REMARKS
BIG PINEY      CLOUDY    22   8  55 CALM      30.23F
PINEDALE       CLOUDY    12  10  92 CALM      30.22F
DUBOIS         FAIR      25  12  58 MISG      30.04F
LANDER         CLOUDY    21   7  54 NW9       30.04F WCI  11
RIVERTON       CLOUDY    31  13  47 W30G36    30.04F WCI  16
CASPER         CLOUDY    24  11  57 SW18      30.05F WCI  10
DOUGLAS        PTCLDY   N/A N/A N/A CALM      30.06F

$$
WYZ021-027>030-104>119-250900-
SOUTHERN WYOMING

CITY           SKY/WX    TMP DP  RH WIND       PRES   REMARKS
EVANSTON       PTCLDY    20  13  74 SW17      30.32F WCI   5
FORT BRIDGER   FAIR      24  11  57 W23G32    30.31F WCI   9
ROCK SPRINGS   MOCLDY    22  11  62 SW24      30.24F WCI   5
DIXON          CLOUDY    10   6  84 CALM      30.31F
RAWLINS        PTCLDY    20  11  68 SW28      30.17S WCI   2
SARATOGA       PTSUNNY   21  12  68 E7        30.20F WCI  13
LARAMIE        PTCLDY    20   6  55 W8        30.10F WCI  10
CHEYENNE       CLEAR     23   9  55 W16       30.09F WCI  10
TORRINGTON     MOCLDY    22  16  78 W3        30.11F
PINE BLUFFS    FAIR      14  10  85 W10       30.13F WCI   1

$$


USA.gov is the U.S. government's official web portal to all federal, state and local government web resources and services.